Location: Marne
(34.0056°N, 117.9064°W)
Time: 03:28:32
(UTC+00:00)

Cosmos 1241 Rocket - Pass Details

Date: 18 January 2020
Orbit: 943 x 1005 km, 65.8° (Epoch: 17 February)

Event Time Altitude Azimuth Distance (km) Brightness Sun altitude
Rises 03:18:41 0° 332° (NNW) 3,611 7.7 -26.9°
Reaches altitude 10° 03:21:13 10° 332° (NNW) 2,666 7.0 -27.4°
Maximum altitude 03:27:27 89° 247° (WSW) 954 4.3 -28.7°
Enters shadow 03:28:08 73° 157° (SSE) 993 4.3 -28.9°
